Flag for Switzerland Weather past 2 weeks in Allschwil, Basel-Land, Switzerland

Now
58 °F

Passing clouds.


Feels Like: 55 °F
Forecast: 37 / 63 °F
Wind: 12 mph from East

Location: Bale-Mulhouse

Current Time: Apr 18, 2015 at 6:17:16 PM

Latest Report: Apr 18, 2015 at 5:00 PM


Visibility: 16 mi

Pressure: 30.14 "Hg

Humidity: 36%

Dew point: 31 °F

Location of AllschwilLocation

Historic Weather in Allschwil — Graph

°F

Allschwil temperature yesterday

Maximum temperature yesterday: 57 °F (at 12:00 AM)
Minimum temperature yesterday: 46 °F (at 11:00 PM)
Average temperature yesterday: 55 °F

Past Weeks' High & Low Weather Summary

 TemperatureHumidityPressure
High79 °F (Apr 15, 4:00 PM)98% (Apr 6, 8:00 AM)30.62 "Hg (Apr 6, 8:00 AM)
Low27 °F (Apr 6, 6:00 AM)20% (Apr 15, 7:00 PM)29.87 "Hg (Apr 4, 4:00 PM)
Average51 °F65%30.25 "Hg
* Reported Apr 3 5:00 PM — Apr 18 5:00 PM, Allschwil, Weather by CustomWeather, © 2015

Note: Actual official high and low records may vary slightly from our data, if they occured in-between our weather recording intervals... More about our weather records

Advertising

Allschwil weather history for previous 24 hours

 ConditionsComfort  
Time TempWeatherWind HumidityBarometerVisibility
5:00 PM
Sat, Apr 18
58 °FPassing clouds.12 mph36%30.14 "Hg16 mi
4:00 PM58 °FScattered clouds.9 mph37%30.14 "Hg16 mi
3:00 PM56 °FPartly sunny.7 mph44%30.16 "Hg16 mi
2:00 PM54 °FOvercast.5 mph50%30.17 "Hg16 mi
1:00 PM53 °FOvercast.5 mph59%30.19 "Hg16 mi
12:00 PM51 °FOvercast.6 mph73%30.20 "Hg16 mi
11:00 AM46 °FPartly sunny.8 mph82%30.21 "Hg16 mi
10:00 AM45 °FPartly sunny.7 mph81%30.18 "Hg16 mi
9:00 AM44 °FOvercast.7 mph86%30.17 "Hg12 mi
8:00 AM42 °FLow clouds.6 mph88%30.17 "Hg9 mi
7:00 AM42 °FOvercast.7 mph88%30.16 "Hg9 mi
6:00 AM43 °FDrizzle. Overcast.8 mph90%30.14 "Hg9 mi
4:00 AM44 °FOvercast.9 mph90%30.12 "Hg11 mi
3:00 AM46 °FOvercast.8 mph91%30.12 "Hg4 mi
2:00 AM47 °FDrizzle. Overcast.6 mph93%30.11 "Hg6 mi
1:00 AM47 °FLight rain. Overcast.3 mph90%30.09 "Hg6 mi
12:00 AM47 °FLight rain. Low clouds.6 mph91%30.08 "Hg5 mi
11:00 PM
Fri, Apr 17
46 °FLight rain. Low clouds.9 mph94%30.07 "Hg3 mi
10:00 PM47 °FRain. Low clouds.10 mph94%30.05 "Hg2 mi
9:00 PM52 °FLight rain. Low clouds.8 mph96%30.01 "Hg4 mi
8:00 PM54 °FRain. Low clouds.12 mph94%29.98 "Hg4 mi
7:00 PM55 °FRain. Overcast.10 mph92%29.96 "Hg4 mi
6:00 PM55 °FLight rain. Overcast.9 mph93%29.95 "Hg5 mi
Weather by CustomWeather, © 2015

See weather overviewHow to use our weather pages